COSMO-SKYMED 2

Last updated on Sat Dec 13 2025 00:02:30 GMT+0000 (Coordinated Universal Time)

1 32376U 07059A 25346.29196688 .00000936 00000+0 12412-3 0 9991 2 32376 97.8811 167.6226 0001505 84.8378 275.3007 14.82165657974319
UTC large
Height (km)
Speed (km/s)
/
Latitude / Longitude
Inclination (degrees)
Orbital Period (minutes)
Azimuth
Elevation
Range (km)
Doppler Factor

Next 0 passes for location: London (51.5072 / 0.1276)

Sorry there are no passes over London.